Weather History for Crestview, FL

Change the Weather History Date:

Sunday, February 17, 2013

  Actual Average Record
Temperature  
Mean Temperature 41 °F -  
Max Temperature 55 °F 65 °F 77 °F (1982)
Min Temperature 27 °F 42 °F 18 °F (2007)
Degree Days  
Heating Degree Days 24    
Moisture  
Dew Point 19 °F    
Average Humidity 48    
Maximum Humidity 85    
Minimum Humidity 19    
Precipitation  
Precipitation 0.00 in - - ()
Sea Level Pressure  
Sea Level Pressure 30.33 in    
Wind  
Wind Speed 2 mph (NW)    
Max Wind Speed 6 mph    
Max Gust Speed -    
Visibility 10 miles    
Events      
Averages and records for this station are not official NWS values.
T = Trace of Precipitation, MM = Missing Value Source: NWS Daily Summary

Daily Weather History Graph

Daily Weather History Graph

Search for Another Location

Airport:

Trip Planner

Search our weather history database for the weather conditions in past years. The results will help you decide how hot, cold, wet, or windy it might be!

Date:

Astronomy

Feb. 17, 2013 Rise Set
Actual Time 6:24 AM CST 5:35 PM CST
Civil Twilight 6:00 AM CST 6:00 PM CST
Nautical Twilight 5:31 AM CST 6:28 PM CST
Astronomical Twilight 5:03 AM CST 6:56 PM CST
Moon 10:49 AM CST (2/17) 12:00 AM CST (2/17)
Length of Visible Light 12h 00m
Length of Day
11h 11m
Waxing Crescent, 49% of the Moon is Illuminated
Feb 17
Waxing Crescent
Feb 17
First Quarter
Feb 25
Full
Mar 4
Last Quarter
Mar 11
New

Hourly Weather History & Observations

Time (CST) Temp. Windchill Dew Point Humidity Pressure Visibility Wind Dir Wind Speed Gust Speed Precip Events Conditions
12:53 AM 28.0 °F - 24.1 °F 85% 30.30 in 10.0 mi Calm Calm - N/A   Clear
1:53 AM 27.0 °F - 23.0 °F 85% 30.29 in 10.0 mi Calm Calm - N/A   Clear
2:53 AM 30.0 °F 26.5 °F 23.0 °F 75% 30.30 in 10.0 mi NW 3.5 mph - N/A   Clear
3:53 AM 30.9 °F 26.2 °F 21.9 °F 69% 30.30 in 10.0 mi NNW 4.6 mph - N/A   Clear
4:53 AM 30.0 °F 24.1 °F 21.9 °F 72% 30.33 in 10.0 mi NNW 5.8 mph - N/A   Clear
5:53 AM 30.0 °F 26.5 °F 21.9 °F 72% 30.35 in 10.0 mi NNW 3.5 mph - N/A   Clear
6:53 AM 28.9 °F 25.2 °F 21.9 °F 75% 30.36 in 10.0 mi NNW 3.5 mph - N/A   Clear
7:53 AM 36.0 °F 33.3 °F 23.0 °F 59% 30.38 in 10.0 mi Variable 3.5 mph - N/A   Clear
8:53 AM 41.0 °F 39.0 °F 19.9 °F 43% 30.40 in 10.0 mi Variable 3.5 mph - N/A   Clear
9:53 AM 43.0 °F 41.3 °F 17.1 °F 35% 30.41 in 10.0 mi Variable 3.5 mph - N/A   Clear
10:53 AM 46.9 °F - 12.9 °F 25% 30.40 in 10.0 mi NNW 3.5 mph - N/A   Clear
11:53 AM 48.9 °F - 9.0 °F 20% 30.38 in 10.0 mi West 4.6 mph - N/A   Clear
12:53 PM 52.0 °F - 10.0 °F 19% 30.33 in 9.0 mi Calm Calm - N/A   Clear
1:53 PM 53.1 °F - 12.0 °F 20% 30.31 in 8.0 mi Calm Calm - N/A   Clear
2:53 PM 54.0 °F - 14.0 °F 21% 30.29 in 8.0 mi Calm Calm - N/A   Partly Cloudy
3:53 PM 55.9 °F - 17.1 °F 22% 30.29 in 10.0 mi NW 4.6 mph - N/A   Partly Cloudy
4:53 PM 55.0 °F - 18.0 °F 23% 30.29 in 10.0 mi SSW 4.6 mph - N/A   Clear
5:53 PM 46.9 °F - 27.0 °F 46% 30.30 in 10.0 mi South 4.6 mph - N/A   Clear
6:53 PM 42.1 °F - - N/A% 30.32 in 10.0 mi Calm Calm - N/A   Clear
7:53 PM 37.0 °F - - N/A% 30.33 in 10.0 mi Calm Calm - N/A   Clear
8:53 PM 35.1 °F - - N/A% 30.34 in 10.0 mi Calm Calm - N/A   Clear
9:53 PM 32.0 °F - - N/A% 30.35 in 10.0 mi Calm Calm - N/A   Clear
11:53 PM 30.0 °F - - N/A% 30.34 in 10.0 mi Calm Calm - N/A   Clear